Location: Hermaringen
(48.5952°N, 10.2585°E)
Time: 20:54:51
(UTC+00:00)

RESURS DK-1 - Pass Details

Date: 18 November 2025
Orbit: 524 x 535 km, 69.9° (Epoch: 04 December)

Event Time Altitude Azimuth Distance (km) Brightness Sun altitude
Rises 16:52:30 0° 328° (NNW) 2,699 6.1 -12.5°
Reaches altitude 10° 16:54:42 10° 326° (NW) 1,803 5.2 -12.9°
Maximum altitude 16:58:41 67° 244° (WSW) 587 2.7 -13.5°
Drops below altitude 10° 17:02:38 10° 162° (SSE) 1,786 4.9 -14.2°
Sets 17:04:49 0° 159° (SSE) 2,671 5.7 -14.5°
